Showing default

COSMOS 1660, 15821

Orbit data source: Space-Track

COSMOS 1660, 15821 is a payload satellite owned by NPO PM (CIS) in LEO that was launched on Fri, 14 Jun 1985 UTC via a TSIKLON-3 launch vehicle from the Plesetsk Missile And Space Complex (PKMTR). Payload-class satellites include a variety of spacecraft equipped with specific instruments for various scientific and technological missions. These include communications satellites like Starlink; space stations such as the ISS; scientific satellites like the Hubble; Earth observation satellites from companies like Planet Labs, Umbra, and HawkEye 360; GPS; miniature CubeSats for education and research; and military/defense satellites.

Loading next visibility...
Identifier
15821, 1985-047A
Orbit
LEO
Country
Flag of CISCIS
Related business
Manufacturer
NPO PM
Mission
Spacecraft
Bus & Motor
KAUR-1 11F666, Unknown motor
Mass
1,556 kg wet, 1,556 kg dry
Launch date (UTC)
1985-06-14 (41 years ago)
Launch vehicle
TSIKLON-3
Launch site
Plesetsk Missile And Space Complex (PKMTR)
Object type
Payload
Rocket body
Debris
Shape & HBR
Unknown
Radar Cross Section
Large (>1 m²)

Expand to show TLE details & history
Last TLE update: 2 days ago

TLE from 2 days ago
0 COSMOS 1660
1 15821U 85047A   26171.44585442 -.00000029  00000-0 -85332-4 0  9992
2 15821  73.6220 181.0050 0026571  62.3242  50.4387 12.40797902857888
Epoch: 2026-06-20T10:42Z
TLE epoch observation values (Epoch: 2026-06-20T10:42:01.821Z)
Latitude
62.12102°
Longitude
-101.72589°
Altitude
1,500.168 km
Speed
7.126 km/s
True Right ascension
21h 49m 46s
True Declination
61° 59' 31"
Sunlit
Object was in daylight at epoch
Visualization orbit readout
Latitude
Unknown
Longitude
Unknown
Altitude
Unknown
Speed
Unknown
Apparent Right ascension
Unknown
Apparent Declination
Unknown
Sunlit
N/A
Visualization observer readout
Local Sidereal Time
23:09:04
Azimuth
Unknown
Elevation
Unknown
Doppler factor
Unknown
Orbital elements
Apogee altitude
1,522.036 km
Perigee altitude
1,480.164 km
Semi-major axis
7,879.237 km
Eccentricity
0.00266
Inclination
73.622°
RAAN
181.005°
Arg. of periapsis
62.3242°
True anomaly
50.67393°
Mean anomaly
50.4387°
Eccentric anomaly
50.55627°
Mean motion
3.10325 °/min
Orbital period
116.01 mins
BSTAR
-0.000085332
Loading maneuver chart data...
Computing Atmospheric mass density...
Loading historical data...
Loading historical data...
Loading historical data...
Loading historical data...
Loading historical data...
Loading historical data...
Loading historical data...
Other satellites on launch #47 in the year 1985 (1985-06-14 UTC)

Documentation

Showing up to 5 results
|